TimeMDT,TemperatureF,Dew PointF,Humidity,Sea Level PressureIn,VisibilityMPH,Wind Direction,Wind SpeedMPH,Gust SpeedMPH,PrecipitationIn,Events,Conditions,WindDirDegrees,DateUTC
12:53 AM,57.0,41.0,55,30.01,10.0,ESE,3.5,-,N/A,,Clear,110,2013-08-11 06:53:00
1:53 AM,53.1,39.9,61,30.01,10.0,SE,9.2,-,N/A,,Clear,130,2013-08-11 07:53:00
2:53 AM,52.0,41.0,66,30.01,10.0,SW,6.9,-,N/A,,Clear,220,2013-08-11 08:53:00
3:53 AM,51.1,39.9,66,30.02,10.0,South,4.6,-,N/A,,Clear,190,2013-08-11 09:53:00
4:53 AM,50.0,37.9,63,30.03,10.0,SSW,9.2,-,N/A,,Clear,200,2013-08-11 10:53:00
5:53 AM,48.9,39.0,69,30.03,10.0,SSW,8.1,-,N/A,,Clear,200,2013-08-11 11:53:00
6:53 AM,51.1,37.9,61,30.03,10.0,South,6.9,-,N/A,,Clear,190,2013-08-11 12:53:00
7:53 AM,54.0,39.0,57,30.04,10.0,South,9.2,-,N/A,,Clear,190,2013-08-11 13:53:00
8:53 AM,59.0,44.1,58,30.05,10.0,WSW,5.8,-,N/A,,Clear,240,2013-08-11 14:53:00
9:53 AM,64.9,42.1,43,30.01,10.0,WSW,3.5,-,N/A,,Clear,250,2013-08-11 15:53:00
10:53 AM,68.0,44.1,42,30.01,10.0,Calm,Calm,-,N/A,,Clear,0,2013-08-11 16:53:00
11:53 AM,75.0,43.0,32,29.99,10.0,Calm,Calm,-,N/A,,Clear,0,2013-08-11 17:53:00
12:53 PM,80.1,42.1,26,29.96,10.0,NW,3.5,-,N/A,,Clear,320,2013-08-11 18:53:00
1:53 PM,82.0,39.9,22,29.95,10.0,WNW,8.1,-,N/A,,Clear,290,2013-08-11 19:53:00
2:53 PM,82.0,34.0,18,29.94,10.0,North,5.8,-,N/A,,Clear,350,2013-08-11 20:53:00
3:53 PM,80.1,41.0,25,29.92,10.0,North,6.9,-,N/A,,Clear,350,2013-08-11 21:53:00
4:53 PM,80.1,37.9,22,29.92,10.0,ENE,8.1,-,N/A,,Clear,60,2013-08-11 22:53:00
5:53 PM,73.0,46.9,39,29.95,10.0,North,9.2,-,N/A,,Scattered Clouds,350,2013-08-11 23:53:00
6:53 PM,73.0,41.0,31,29.98,10.0,NNE,17.3,27.6,N/A,,Overcast,20,2013-08-12 00:53:00
7:53 PM,69.1,44.1,40,29.98,10.0,NE,12.7,23.0,0.01,,Partly Cloudy,40,2013-08-12 01:53:00
8:53 PM,61.0,44.1,54,30.01,10.0,NNW,4.6,-,N/A,,Clear,340,2013-08-12 02:53:00
9:53 PM,59.0,44.1,58,30.03,10.0,East,5.8,-,N/A,,Clear,100,2013-08-12 03:53:00
10:53 PM,57.0,44.1,62,30.03,10.0,SE,8.1,-,N/A,,Clear,130,2013-08-12 04:53:00
11:53 PM,54.0,43.0,66,30.01,10.0,SE,6.9,-,N/A,,Clear,130,2013-08-12 05:53:00